Weather History for KADM - September, 2011

Change the Weather History Date:

Sunday, September 11, 2011

  Actual Average Record
Temperature  
Mean Temperature 76 °F -  
Max Temperature 89 °F - - ()
Min Temperature 64 °F - - ()
Cooling Degree Days 12    
Growing Degree Days 26 (Base 50)    
Moisture  
Dew Point 53 °F    
Average Humidity 59    
Maximum Humidity 68    
Minimum Humidity 24    
Precipitation  
Precipitation 0.00 in - - ()
Sea Level Pressure  
Sea Level Pressure 30.05 in    
Wind  
Wind Speed 1 mph (NNW)    
Max Wind Speed 9 mph    
Max Gust Speed -    
Visibility 10 miles    
Events      
T = Trace of Precipitation, MM = Missing Value Source: NWS Daily Summary

Daily Weather History Graph

Daily Weather History Graph

Search for Another Location

Airport or City:

Trip Planner

Search our weather history database for the weather conditions in past years. The results will help you decide how hot, cold, wet, or windy it might be!

Date:

Astronomy

Sep. 11, 2011 Rise Set
Actual Time 7:08 AM CDT 7:40 PM CDT
Civil Twilight 6:42 AM CDT 8:05 PM CDT
Nautical Twilight 6:13 AM CDT 8:35 PM CDT
Astronomical Twilight 5:42 AM CDT 9:05 PM CDT
Moon 7:05 PM CDT (9/11) 6:27 AM CDT (9/11)
Length of Visible Light 13h 22m
Length of Day
12h 32m
Full, 100% of the Moon is Illuminated
Sep 11
Full
Sep 12
Full
Sep 20
Last Quarter
Sep 27
New
Oct 3
First Quarter

Hourly Weather History & Observations

Time (CDT) Temp. Dew Point Humidity Pressure Visibility Wind Dir Wind Speed Gust Speed Precip Events Conditions
12:15 AM 69.8 °F 53.6 °F 56% 30.03 in 10.0 mi Calm Calm - N/A   Clear
12:35 AM 69.8 °F 55.4 °F 60% 30.03 in 10.0 mi Calm Calm - N/A   Clear
1:15 AM 68.0 °F 55.4 °F 64% 30.03 in 10.0 mi Calm Calm - N/A   Clear
1:35 AM 69.8 °F 55.4 °F 60% 30.03 in 10.0 mi Calm Calm - N/A   Clear
1:55 AM 68.0 °F 55.4 °F 64% 30.03 in 10.0 mi Calm Calm - N/A   Clear
2:15 AM 68.0 °F 53.6 °F 60% 30.03 in 10.0 mi Calm Calm - N/A   Clear
2:35 AM 69.8 °F 53.6 °F 56% 30.03 in 10.0 mi Calm Calm - N/A   Clear
2:55 AM 68.0 °F 55.4 °F 64% 30.03 in 10.0 mi Calm Calm - N/A   Clear
3:15 AM 68.0 °F 55.4 °F 64% 30.03 in 10.0 mi Calm Calm - N/A   Clear
3:55 AM 66.2 °F 53.6 °F 64% 30.03 in 10.0 mi Calm Calm - N/A   Clear
4:15 AM 64.4 °F 53.6 °F 68% 30.04 in 10.0 mi Calm Calm - N/A   Clear
4:35 AM 64.4 °F 53.6 °F 68% 30.04 in 10.0 mi Calm Calm - N/A   Clear
5:15 AM 64.4 °F 53.6 °F 68% 30.04 in 10.0 mi Calm Calm - N/A   Clear
5:55 AM 64.4 °F 53.6 °F 68% 30.05 in 10.0 mi Calm Calm - N/A   Clear
6:15 AM 66.2 °F 53.6 °F 64% 30.05 in 10.0 mi North 8.1 mph - N/A   Clear
6:35 AM 66.2 °F 53.6 °F 64% 30.06 in 10.0 mi North 9.2 mph - N/A   Clear
6:55 AM 66.2 °F 51.8 °F 60% 30.06 in 10.0 mi North 8.1 mph - N/A   Clear
10:55 AM 77.0 °F 53.6 °F 44% 30.12 in 10.0 mi NW 5.8 mph - N/A   Clear
12:55 PM 89.6 °F 48.2 °F 24% 30.11 in 10.0 mi NW 4.6 mph - N/A   Clear
10:15 PM 69.8 °F 50.0 °F 49% 30.07 in 10.0 mi Calm Calm - N/A   Clear
10:35 PM 68.0 °F 51.8 °F 56% 30.07 in 10.0 mi Calm Calm - N/A   Clear
10:55 PM 68.0 °F 51.8 °F 56% 30.07 in 10.0 mi Calm Calm - N/A   Clear
11:15 PM 68.0 °F 51.8 °F 56% 30.08 in 10.0 mi Calm Calm - N/A   Clear
11:35 PM 66.2 °F 51.8 °F 60% 30.07 in 10.0 mi Calm Calm - N/A   Clear
11:55 PM 64.4 °F 51.8 °F 64% 30.08 in 10.0 mi SSE 3.5 mph - N/A   Clear